Regional Weather Roundup
Issued by NWS

Home | Current Version | Previous Version | Text Only | Print | Product List | Glossary On
Versions: 1 2 3 4 5 6 7 8 9 10 11 12 13 14 15 16 17 18 19 20 21 22 23 24 25 26 27
000
ASUS45 KREV 291810
RWRNV
NEVADA REGIONAL WEATHER ROUNDUP
NATIONAL WEATHER SERVICE RENO NV
1100 AM PDT MON MAY 29 2017

NOTE: "FAIR" INDICATES FEW OR NO CLOUDS BELOW 12,000 FEET WITH NO
SIGNIFICANT WEATHER AND/OR OBSTRUCTIONS TO VISIBILITY.

NVZ001-003-004-291900-
WESTERN NEVADA

CITY           SKY/WX    TMP DP  RH WIND       PRES   REMARKS
RENO           PTSUNNY   79  32  18 CALM      30.08F
6HR MIN TEMP:  55; 6HR MAX TEMP:  79;

CARSON CITY    FAIR      77  32  19 CALM      30.10F
MINDEN         FAIR      72  39  30 N3        30.11F
FALLON         SUNNY     78  27  15 W7        30.06F
6HR MIN TEMP:  47; 6HR MAX TEMP:  79;

LOVELOCK       SUNNY     81  32  17 E3        30.05F
6HR MIN TEMP:  47; 6HR MAX TEMP:  82;

HAWTHORNE      SUNNY     77  23  13 N7        30.07F
$$

NVZ002-CAZ072-073-291900-
NORTHERN AND CENTRAL SIERRA

CITY           SKY/WX    TMP DP  RH WIND       PRES   REMARKS
S. LAKE TAHOE  MOSUNNY   68  42  38 NE8       30.17F
6HR MIN TEMP:  38; 6HR MAX TEMP:  68;

TRUCKEE        MOSUNNY   72  39  30 NE3       30.16F
SQUAW VLY 8000   N/A     55  32  41 E6          N/A
SUSANVILLE     SUNNY     79  34  19 NE5       30.08F
MAMMOTH LAKES  FAIR      71  22  15 SE7       30.23S
6HR MIN TEMP:  36; 6HR MAX TEMP:  71;

BRIDGEPORT     FAIR      70  21  15 VRB3      30.17F
$$

NVZ030-031-036-291900-
NORTHERN NEVADA

CITY           SKY/WX    TMP DP  RH WIND       PRES   REMARKS
ELKO           SUNNY     75  34  22 NE7       30.16F
6HR MIN TEMP:  44; 6HR MAX TEMP:  75;

WINNEMUCCA     SUNNY     80  34  19 N10       30.09F
6HR MIN TEMP:  43; 6HR MAX TEMP:  80;

WENDOVER       SUNNY     75  33  21 E8        30.15F
$$

NVZ035-037-291900-
CENTRAL NEVADA

CITY           SKY/WX    TMP DP  RH WIND       PRES   REMARKS
ELY            SUNNY     70  29  21 VRB3      30.21F
6HR MIN TEMP:  34; 6HR MAX TEMP:  70;

EUREKA           N/A     73  28  18 NE7       30.18F
6HR MIN TEMP:  36; 6HR MAX TEMP:  73;

$$

NVZ013-014-291900-
SOUTH CENTRAL NEVADA

CITY           SKY/WX    TMP DP  RH WIND       PRES   REMARKS
TONOPAH        SUNNY     78  21  12 MISG      30.13F
6HR MIN TEMP:  53; 6HR MAX TEMP:  79;

$$

NVZ017-020-022-291900-
SOUTHERN NEVADA

CITY           SKY/WX    TMP DP  RH WIND       PRES   REMARKS
LAS VEGAS      MOSUNNY   92  12   5 NE13      29.90F
6HR MIN TEMP:  72; 6HR MAX TEMP:  92;

N. LAS VEGAS   SUNNY     93  15   6 N6        29.90F
6HR MIN TEMP:  70; 6HR MAX TEMP:  93;

NELLIS AFB     SUNNY     94  20   7 N14       29.88F
6HR MIN TEMP:  70; 6HR MAX TEMP:  94;

HENDERSON      SUNNY     90  24   9 NE10G17   29.95F
6HR MIN TEMP:  64; 6HR MAX TEMP:  90;

MERCURY        SUNNY     91  20   7 NE6       29.97F
6HR MIN TEMP:  60; 6HR MAX TEMP:  91;

$$




USA.gov is the U.S. government's official web portal to all federal, state and local government web resources and services.